| time (UTC) | temp F | wind direction | speed MPH | gust MPH | rain 1hr in | rain 24hr in | rain mn in | humidity % | barometer mb |
| 20260831231903 | 88 | 192 | 0.0 | 2.0 | 0.00 | 0.00 | 0.00 | 100 | 1014.4 |
| 20260831231403 | 88 | 149 | 0.0 | 5.0 | 0.00 | 0.00 | 0.00 | 100 | 1014.4 |
| 20260831230903 | 88 | 136 | 0.0 | 5.0 | 0.00 | 0.00 | 0.00 | 100 | 1014.3 |
| 20260831230644 | 88 | 115 | 3.0 | 6.0 | 0.00 | 0.00 | 0.00 | 100 | 1014.4 |
| 20260831230403 | 88 | 115 | 3.0 | 6.0 | 0.00 | 0.00 | 0.00 | 100 | 1014.4 |
| 20260831225903 | 88 | 70 | 2.0 | 7.0 | 0.00 | 0.00 | 0.00 | 100 | 1014.3 |
| 20260831225622 | 88 | 205 | 2.0 | 6.0 | 0.00 | 0.00 | 0.00 | 100 | 1014.2 |
| 20260831225403 | 88 | 205 | 2.0 | 6.0 | 0.00 | 0.00 | 0.00 | 100 | 1014.2 |
| 20260831224903 | 88 | 192 | 1.0 | 6.0 | 0.00 | 0.00 | 0.00 | 100 | 1014.2 |
| 20260831224403 | 88 | 139 | 1.0 | 4.0 | 0.00 | 0.00 | 0.00 | 100 | 1014.2 |
| 20260831223903 | 87 | 208 | 2.0 | 5.0 | 0.00 | 0.00 | 0.00 | 100 | 1014.3 |
| 20260831223403 | 87 | 178 | 1.0 | 7.0 | 0.00 | 0.00 | 0.00 | 100 | 1014.1 |
| 20260831223206 | 87 | 262 | 0.0 | 9.0 | 0.00 | 0.00 | 0.00 | 100 | 1014.2 |
| 20260831222903 | 87 | 262 | 0.0 | 9.0 | 0.00 | 0.00 | 0.00 | 100 | 1014.2 |
| 20260831222627 | 87 | 203 | 6.0 | 6.0 | 0.00 | 0.00 | 0.00 | 100 | 1014.4 |
| 20260831222403 | 87 | 203 | 6.0 | 6.0 | 0.00 | 0.00 | 0.00 | 100 | 1014.4 |
| 20260831222132 | 87 | 181 | 6.0 | 11.0 | 0.00 | 0.00 | 0.00 | 100 | 1014.6 |
| 20260831221903 | 87 | 181 | 6.0 | 11.0 | 0.00 | 0.00 | 0.00 | 100 | 1014.6 |
| 20260831221626 | 88 | 130 | 9.0 | 11.0 | 0.00 | 0.00 | 0.00 | 100 | 1014.6 |
| 20260831221403 | 88 | 130 | 9.0 | 11.0 | 0.00 | 0.00 | 0.00 | 100 | 1014.6 |
| 20260831221139 | 88 | 123 | 1.0 | 14.0 | 0.00 | 0.00 | 0.00 | 100 | 1014.6 |
| 20260831220903 | 88 | 123 | 1.0 | 14.0 | 0.00 | 0.00 | 0.00 | 100 | 1014.6 |
| 20260831220403 | 88 | 202 | 4.0 | 10.0 | 0.00 | 0.00 | 0.00 | 100 | 1014.6 |
| 20260831215903 | 89 | 163 | 4.0 | 9.0 | 0.00 | 0.00 | 0.00 | 100 | 1014.5 |
| 20260831215403 | 90 | 112 | 8.0 | 9.0 | 0.00 | 0.00 | 0.00 | 100 | 1014.5 |
| 20260831214903 | 91 | 175 | 1.0 | 7.0 | 0.00 | 0.00 | 0.00 | 100 | 1014.3 |
| 20260831214440 | 92 | 150 | 5.0 | 8.0 | 0.00 | 0.00 | 0.00 | 100 | 1014.3 |
| 20260831214403 | 92 | 150 | 5.0 | 8.0 | 0.00 | 0.00 | 0.00 | 100 | 1014.3 |
| 20260831213903 | 92 | 66 | 6.0 | 11.0 | 0.00 | 0.00 | 0.00 | 100 | 1013.9 |
| 20260831213709 | 92 | 18 | 5.0 | 10.0 | 0.00 | 0.00 | 0.00 | 100 | 1013.8 |
| 20260831213403 | 92 | 18 | 5.0 | 10.0 | 0.00 | 0.00 | 0.00 | 100 | 1013.8 |
| 20260831213136 | 92 | 30 | 6.0 | 10.0 | 0.00 | 0.00 | 0.00 | 100 | 1013.8 |
| 20260831212903 | 92 | 30 | 6.0 | 10.0 | 0.00 | 0.00 | 0.00 | 100 | 1013.8 |
| 20260831212403 | 92 | 56 | 4.0 | 12.0 | 0.00 | 0.00 | 0.00 | 100 | 1013.9 |
| 20260831211903 | 92 | 357 | 6.0 | 12.0 | 0.00 | 0.00 | 0.00 | 100 | 1013.8 |
| 20260831211403 | 92 | 9 | 11.0 | 11.0 | 0.00 | 0.00 | 0.00 | 100 | 1013.9 |
| 20260831211141 | 92 | 28 | 6.0 | 14.0 | 0.00 | 0.00 | 0.00 | 100 | 1013.9 |
| 20260831210904 | 92 | 28 | 6.0 | 14.0 | 0.00 | 0.00 | 0.00 | 100 | 1013.9 |
| 20260831210436 | 91 | 324 | 12.0 | 12.0 | 0.00 | 0.00 | 0.00 | 100 | 1013.9 |
| 20260831210403 | 91 | 324 | 12.0 | 12.0 | 0.00 | 0.00 | 0.00 | 100 | 1013.9 |
| 20260831210136 | 91 | 0 | 6.0 | 10.0 | 0.00 | 0.00 | 0.00 | 100 | 1013.8 |
| 20260831205903 | 91 | 0 | 6.0 | 10.0 | 0.00 | 0.00 | 0.00 | 100 | 1013.8 |
| 20260831205403 | 91 | 22 | 6.0 | 12.0 | 0.00 | 0.00 | 0.00 | 100 | 1013.8 |
| 20260831205144 | 91 | 8 | 10.0 | 12.0 | 0.00 | 0.00 | 0.00 | 100 | 1013.8 |
| 20260831204903 | 91 | 8 | 10.0 | 12.0 | 0.00 | 0.00 | 0.00 | 100 | 1013.8 |
| 20260831204624 | 91 | 25 | 9.0 | 10.0 | 0.00 | 0.00 | 0.00 | 100 | 1013.8 |
| 20260831204403 | 91 | 25 | 9.0 | 10.0 | 0.00 | 0.00 | 0.00 | 100 | 1013.8 |
| 20260831203903 | 91 | 18 | 6.0 | 12.0 | 0.00 | 0.00 | 0.00 | 100 | 1013.9 |
| 20260831203403 | 91 | 18 | 6.0 | 13.0 | 0.00 | 0.00 | 0.00 | 100 | 1013.8 |
| 20260831202903 | 91 | 341 | 6.0 | 11.0 | 0.00 | 0.00 | 0.00 | 100 | 1013.9 |
| 20260831202654 | 92 | 49 | 6.0 | 11.0 | 0.00 | 0.00 | 0.00 | 100 | 1014.0 |
| 20260831202403 | 92 | 49 | 6.0 | 11.0 | 0.00 | 0.00 | 0.00 | 100 | 1014.0 |
| 20260831202130 | 91 | 29 | 6.0 | 10.0 | 0.00 | 0.00 | 0.00 | 100 | 1014.1 |
| 20260831201903 | 91 | 29 | 6.0 | 10.0 | 0.00 | 0.00 | 0.00 | 100 | 1014.1 |
| 20260831201645 | 90 | 16 | 0.0 | 5.0 | 0.00 | 0.00 | 0.00 | 100 | 1014.1 |
| 20260831201403 | 90 | 16 | 0.0 | 5.0 | 0.00 | 0.00 | 0.00 | 100 | 1014.1 |
| 20260831200903 | 89 | 226 | 0.0 | 0.0 | 0.00 | 0.00 | 0.00 | 100 | 1014.2 |
| 20260831200403 | 89 | 226 | 0.0 | 1.0 | 0.00 | 0.00 | 0.00 | 100 | 1014.3 |
| 20260831195903 | 89 | 163 | 0.0 | 1.0 | 0.00 | 0.00 | 0.00 | 100 | 1014.4 |
| 20260831195648 | 90 | 251 | 1.0 | 5.0 | 0.00 | 0.00 | 0.00 | 100 | 1014.4 |
| 20260831195403 | 90 | 251 | 1.0 | 5.0 | 0.00 | 0.00 | 0.00 | 100 | 1014.4 |
| 20260831195131 | 91 | 215 | 0.0 | 4.0 | 0.00 | 0.00 | 0.00 | 100 | 1014.3 |
| 20260831194903 | 91 | 215 | 0.0 | 4.0 | 0.00 | 0.00 | 0.00 | 100 | 1014.3 |
| 20260831194714 | 92 | 108 | 0.0 | 2.0 | 0.00 | 0.00 | 0.00 | 100 | 1014.2 |
| 20260831194403 | 92 | 108 | 0.0 | 2.0 | 0.00 | 0.00 | 0.00 | 100 | 1014.2 |
| 20260831194132 | 92 | 126 | 0.0 | 2.0 | 0.00 | 0.00 | 0.00 | 100 | 1014.2 |
| 20260831193903 | 92 | 126 | 0.0 | 2.0 | 0.00 | 0.00 | 0.00 | 100 | 1014.2 |
| 20260831193403 | 92 | 70 | 1.0 | 3.0 | 0.00 | 0.00 | 0.00 | 100 | 1014.3 |
| 20260831193052 | 92 | 47 | 2.0 | 9.0 | 0.00 | 0.00 | 0.00 | 100 | 1014.2 |
| 20260831192903 | 92 | 75 | 0.0 | 5.0 | 0.00 | 0.00 | 0.00 | 100 | 1014.3 |
| 20260831192705 | 92 | 47 | 2.0 | 9.0 | 0.00 | 0.00 | 0.00 | 100 | 1014.2 |
| 20260831192403 | 92 | 47 | 2.0 | 9.0 | 0.00 | 0.00 | 0.00 | 100 | 1014.2 |
| 20260831192123 | 92 | 16 | 3.0 | 10.0 | 0.00 | 0.00 | 0.00 | 100 | 1014.1 |
| 20260831191903 | 92 | 16 | 3.0 | 10.0 | 0.00 | 0.00 | 0.00 | 100 | 1014.1 |
| 20260831191804 | 92 | 358 | 6.0 | 11.0 | 0.00 | 0.00 | 0.00 | 100 | 1014.1 |
| 20260831191403 | 92 | 358 | 6.0 | 11.0 | 0.00 | 0.00 | 0.00 | 100 | 1014.1 |
| 20260831191256 | 92 | 12 | 7.0 | 12.0 | 0.00 | 0.00 | 0.00 | 100 | 1014.0 |
| 20260831190903 | 92 | 12 | 7.0 | 12.0 | 0.00 | 0.00 | 0.00 | 100 | 1014.0 |
| 20260831190403 | 92 | 22 | 6.0 | 11.0 | 0.00 | 0.00 | 0.00 | 100 | 1014.1 |
| 20260831185904 | 92 | 358 | 5.0 | 14.0 | 0.00 | 0.00 | 0.00 | 100 | 1014.1 |
| 20260831185403 | 92 | 358 | 7.0 | 12.0 | 0.00 | 0.00 | 0.00 | 100 | 1014.1 |
| 20260831184904 | 92 | 340 | 7.0 | 10.0 | 0.00 | 0.00 | 0.00 | 100 | 1014.2 |
| 20260831184403 | 92 | 60 | 3.0 | 11.0 | 0.00 | 0.00 | 0.00 | 100 | 1014.3 |
| 20260831183904 | 92 | 340 | 8.0 | 13.0 | 0.00 | 0.00 | 0.00 | 100 | 1014.4 |
| 20260831183404 | 92 | 343 | 7.0 | 11.0 | 0.00 | 0.00 | 0.00 | 100 | 1014.5 |
| 20260831183226 | 93 | 9 | 6.0 | 11.0 | 0.00 | 0.00 | 0.00 | 100 | 1014.6 |
| 20260831182904 | 93 | 9 | 6.0 | 11.0 | 0.00 | 0.00 | 0.00 | 100 | 1014.6 |
| 20260831182712 | 92 | 358 | 8.0 | 11.0 | 0.00 | 0.00 | 0.00 | 100 | 1014.6 |
| 20260831182404 | 92 | 358 | 8.0 | 11.0 | 0.00 | 0.00 | 0.00 | 100 | 1014.6 |
| 20260831181904 | 92 | 56 | 6.0 | 12.0 | 0.00 | 0.00 | 0.00 | 100 | 1014.7 |
| 20260831181404 | 92 | 9 | 6.0 | 11.0 | 0.00 | 0.00 | 0.00 | 100 | 1014.8 |
| 20260831181321 | 92 | 26 | 7.0 | 11.0 | 0.00 | 0.00 | 0.00 | 100 | 1014.9 |
| 20260831180904 | 92 | 26 | 7.0 | 11.0 | 0.00 | 0.00 | 0.00 | 100 | 1014.9 |
| 20260831180404 | 92 | 21 | 3.0 | 13.0 | 0.00 | 0.00 | 0.00 | 100 | 1014.9 |
| 20260831180207 | 92 | 23 | 8.0 | 10.0 | 0.00 | 0.00 | 0.00 | 100 | 1015.0 |
| 20260831175904 | 92 | 23 | 8.0 | 10.0 | 0.00 | 0.00 | 0.00 | 100 | 1015.0 |
| 20260831175404 | 91 | 29 | 2.0 | 12.0 | 0.00 | 0.00 | 0.00 | 100 | 1015.1 |
| 20260831174904 | 91 | 56 | 3.0 | 12.0 | 0.00 | 0.00 | 0.00 | 100 | 1015.1 |
| 20260831174404 | 91 | 7 | 4.0 | 9.0 | 0.00 | 0.00 | 0.00 | 100 | 1015.1 |
| 20260831173904 | 91 | 15 | 5.0 | 10.0 | 0.00 | 0.00 | 0.00 | 100 | 1015.2 |
| 20260831173404 | 91 | 23 | 8.0 | 11.0 | 0.00 | 0.00 | 0.00 | 100 | 1015.3 |
| 20260831173241 | 90 | 5 | 6.0 | 11.0 | 0.00 | 0.00 | 0.00 | 100 | 1015.3 |
| 20260831172904 | 90 | 5 | 6.0 | 11.0 | 0.00 | 0.00 | 0.00 | 100 | 1015.3 |
| 20260831172404 | 90 | 358 | 8.0 | 9.0 | 0.00 | 0.00 | 0.00 | 100 | 1015.4 |
| 20260831171904 | 90 | 7 | 6.0 | 8.0 | 0.00 | 0.00 | 0.00 | 100 | 1015.5 |
| 20260831171404 | 90 | 19 | 6.0 | 8.0 | 0.00 | 0.00 | 0.00 | 100 | 1015.5 |
| 20260831171212 | 90 | 25 | 6.0 | 9.0 | 0.00 | 0.00 | 0.00 | 100 | 1015.5 |
| 20260831170904 | 90 | 25 | 6.0 | 9.0 | 0.00 | 0.00 | 0.00 | 100 | 1015.5 |
| 20260831170404 | 90 | 9 | 3.0 | 9.0 | 0.00 | 0.00 | 0.00 | 100 | 1015.7 |
| 20260831165904 | 90 | 15 | 4.0 | 11.0 | 0.00 | 0.00 | 0.00 | 100 | 1015.7 |
| 20260831165712 | 90 | 21 | 7.0 | 11.0 | 0.00 | 0.00 | 0.00 | 100 | 1015.8 |
| 20260831165404 | 90 | 21 | 7.0 | 11.0 | 0.00 | 0.00 | 0.00 | 100 | 1015.8 |
| 20260831164904 | 91 | 358 | 8.0 | 11.0 | 0.00 | 0.00 | 0.00 | 100 | 1015.8 |
| 20260831164404 | 91 | 2 | 4.0 | 9.0 | 0.00 | 0.00 | 0.00 | 100 | 1015.8 |
| 20260831163904 | 91 | 37 | 7.0 | 13.0 | 0.00 | 0.00 | 0.00 | 100 | 1015.9 |
| 20260831163404 | 92 | 12 | 8.0 | 11.0 | 0.00 | 0.00 | 0.00 | 100 | 1015.9 |
| 20260831162904 | 93 | 47 | 4.0 | 7.0 | 0.00 | 0.00 | 0.00 | 100 | 1015.9 |
| 20260831162713 | 94 | 32 | 5.0 | 7.0 | 0.00 | 0.00 | 0.00 | 100 | 1016.0 |
| 20260831162404 | 94 | 32 | 5.0 | 7.0 | 0.00 | 0.00 | 0.00 | 100 | 1016.0 |
| 20260831161904 | 93 | 25 | 0.0 | 5.0 | 0.00 | 0.00 | 0.00 | 100 | 1015.9 |
| 20260831161404 | 93 | 130 | 4.0 | 4.0 | 0.00 | 0.00 | 0.00 | 100 | 1015.9 |
| 20260831160904 | 93 | 338 | 0.0 | 5.0 | 0.00 | 0.00 | 0.00 | 100 | 1015.9 |
| 20260831160404 | 93 | 22 | 5.0 | 5.0 | 0.00 | 0.00 | 0.00 | 100 | 1015.8 |
| 20260831160252 | 94 | 216 | 0.0 | 3.0 | 0.00 | 0.00 | 0.00 | 100 | 1016.0 |
| 20260831155904 | 94 | 216 | 0.0 | 3.0 | 0.00 | 0.00 | 0.00 | 100 | 1016.0 |
| 20260831155634 | 94 | 192 | 1.0 | 5.0 | 0.00 | 0.00 | 0.00 | 100 | 1016.0 |
| 20260831155404 | 94 | 192 | 1.0 | 5.0 | 0.00 | 0.00 | 0.00 | 100 | 1016.0 |
| 20260831155142 | 93 | 60 | 0.0 | 4.0 | 0.00 | 0.00 | 0.00 | 100 | 1015.9 |
| 20260831154904 | 93 | 60 | 0.0 | 4.0 | 0.00 | 0.00 | 0.00 | 100 | 1015.9 |
| 20260831154404 | 93 | 139 | 0.0 | 3.0 | 0.00 | 0.00 | 0.00 | 100 | 1015.9 |
| 20260831153904 | 93 | 168 | 0.0 | 3.0 | 0.00 | 0.00 | 0.00 | 100 | 1015.8 |
| 20260831153404 | 92 | 288 | 0.0 | 4.0 | 0.00 | 0.00 | 0.00 | 100 | 1015.9 |
| 20260831152904 | 92 | 302 | 1.0 | 3.0 | 0.00 | 0.00 | 0.00 | 100 | 1015.9 |
| 20260831152404 | 92 | 43 | 1.0 | 5.0 | 0.00 | 0.00 | 0.00 | 100 | 1015.9 |
| 20260831151904 | 92 | 77 | 3.0 | 5.0 | 0.00 | 0.00 | 0.00 | 100 | 1015.8 |
| 20260831151404 | 92 | 202 | 4.0 | 6.0 | 0.00 | 0.00 | 0.00 | 100 | 1015.8 |
| 20260831150904 | 92 | 268 | 2.0 | 3.0 | 0.00 | 0.00 | 0.00 | 100 | 1015.8 |
| 20260831150404 | 92 | 129 | 2.0 | 6.0 | 0.00 | 0.00 | 0.00 | 100 | 1015.8 |
| 20260831145904 | 92 | 118 | 4.0 | 6.0 | 0.00 | 0.00 | 0.00 | 100 | 1015.8 |
| 20260831145404 | 92 | 194 | 0.0 | 3.0 | 0.00 | 0.00 | 0.00 | 100 | 1015.8 |
| 20260831144904 | 92 | 189 | 0.0 | 3.0 | 0.00 | 0.00 | 0.00 | 100 | 1015.9 |
| 20260831144404 | 91 | 116 | 0.0 | 4.0 | 0.00 | 0.00 | 0.00 | 100 | 1015.9 |
| 20260831143904 | 91 | 123 | 0.0 | 4.0 | 0.00 | 0.00 | 0.00 | 100 | 1015.8 |
| 20260831143404 | 91 | 210 | 0.0 | 4.0 | 0.00 | 0.00 | 0.00 | 100 | 1015.8 |
| 20260831142904 | 91 | 151 | 0.0 | 4.0 | 0.00 | 0.00 | 0.00 | 100 | 1015.8 |
| 20260831142404 | 90 | 205 | 0.0 | 4.0 | 0.00 | 0.00 | 0.00 | 100 | 1015.7 |
| 20260831142142 | 90 | 177 | 2.0 | 4.0 | 0.00 | 0.00 | 0.00 | 100 | 1015.7 |
| 20260831141904 | 90 | 177 | 2.0 | 4.0 | 0.00 | 0.00 | 0.00 | 100 | 1015.7 |
| 20260831141404 | 90 | 262 | 0.0 | 4.0 | 0.00 | 0.00 | 0.00 | 100 | 1015.7 |
| 20260831140904 | 90 | 167 | 0.0 | 6.0 | 0.00 | 0.00 | 0.00 | 100 | 1015.8 |
| 20260831140404 | 89 | 167 | 2.0 | 2.0 | 0.00 | 0.00 | 0.00 | 100 | 1015.8 |
| 20260831135904 | 89 | 180 | 0.0 | 3.0 | 0.00 | 0.00 | 0.00 | 100 | 1015.8 |
| 20260831135404 | 89 | 118 | 0.0 | 2.0 | 0.00 | 0.00 | 0.00 | 100 | 1015.8 |
| 20260831134904 | 88 | 157 | 0.0 | 3.0 | 0.00 | 0.00 | 0.00 | 100 | 1015.7 |
| 20260831134404 | 88 | 215 | 1.0 | 4.0 | 0.00 | 0.00 | 0.00 | 100 | 1015.9 |
| 20260831133904 | 88 | 168 | 0.0 | 4.0 | 0.00 | 0.00 | 0.00 | 100 | 1015.9 |
| 20260831133404 | 87 | 227 | 0.0 | 3.0 | 0.00 | 0.00 | 0.00 | 100 | 1015.9 |
| 20260831132904 | 87 | 98 | 0.0 | 2.0 | 0.00 | 0.00 | 0.00 | 100 | 1015.8 |
| 20260831132404 | 86 | 171 | 2.0 | 3.0 | 0.00 | 0.00 | 0.00 | 100 | 1015.8 |
| 20260831131904 | 86 | 229 | 0.0 | 0.0 | 0.00 | 0.00 | 0.00 | 100 | 1015.8 |
| 20260831131607 | 85 | 229 | 0.0 | 2.0 | 0.00 | 0.00 | 0.00 | 100 | 1015.7 |
| 20260831131404 | 85 | 229 | 0.0 | 2.0 | 0.00 | 0.00 | 0.00 | 100 | 1015.7 |
| 20260831130904 | 85 | 88 | 0.0 | 0.0 | 0.00 | 0.00 | 0.00 | 100 | 1015.7 |
| 20260831130404 | 84 | 88 | 0.0 | 0.0 | 0.00 | 0.00 | 0.00 | 100 | 1015.6 |
| 20260831130135 | 84 | 130 | 0.0 | 0.0 | 0.00 | 0.00 | 0.00 | 100 | 1015.7 |
| 20260831125904 | 84 | 130 | 0.0 | 0.0 | 0.00 | 0.00 | 0.00 | 100 | 1015.7 |
| 20260831125404 | 84 | 130 | 0.0 | 2.0 | 0.00 | 0.00 | 0.00 | 100 | 1015.6 |
| 20260831124904 | 84 | 160 | 0.0 | 0.0 | 0.00 | 0.00 | 0.00 | 100 | 1015.6 |
| 20260831124404 | 84 | 144 | 0.0 | 0.0 | 0.00 | 0.00 | 0.00 | 100 | 1015.7 |
| 20260831124147 | 83 | 144 | 0.0 | 2.0 | 0.00 | 0.00 | 0.00 | 100 | 1015.7 |
| 20260831123904 | 83 | 144 | 0.0 | 2.0 | 0.00 | 0.00 | 0.00 | 100 | 1015.7 |
| 20260831123642 | 83 | 181 | 0.0 | 0.0 | 0.00 | 0.00 | 0.00 | 100 | 1015.7 |
| 20260831123404 | 83 | 181 | 0.0 | 0.0 | 0.00 | 0.00 | 0.00 | 100 | 1015.7 |
| 20260831122904 | 83 | 73 | 0.0 | 0.0 | 0.00 | 0.00 | 0.00 | 100 | 1015.6 |
| 20260831122627 | 83 | 73 | 0.0 | 0.0 | 0.00 | 0.00 | 0.00 | 100 | 1015.5 |
| 20260831122404 | 83 | 73 | 0.0 | 0.0 | 0.00 | 0.00 | 0.00 | 100 | 1015.5 |
| 20260831122210 | 83 | 73 | 0.0 | 0.0 | 0.00 | 0.00 | 0.00 | 100 | 1015.5 |
| 20260831121904 | 83 | 73 | 0.0 | 0.0 | 0.00 | 0.00 | 0.00 | 100 | 1015.5 |
| 20260831121632 | 83 | 73 | 0.0 | 0.0 | 0.00 | 0.00 | 0.00 | 100 | 1015.4 |
| 20260831121404 | 83 | 73 | 0.0 | 0.0 | 0.00 | 0.00 | 0.00 | 100 | 1015.4 |
| 20260831121138 | 83 | 73 | 0.0 | 0.0 | 0.00 | 0.00 | 0.00 | 100 | 1015.3 |
| 20260831120951 | 83 | 73 | 0.0 | 0.0 | 0.00 | 0.00 | 0.00 | 100 | 1015.3 |
| 20260831120904 | 83 | 73 | 0.0 | 0.0 | 0.00 | 0.00 | 0.00 | 100 | 1015.3 |
| 20260831120404 | 83 | 73 | 0.0 | 0.0 | 0.00 | 0.00 | 0.00 | 100 | 1015.3 |
| 20260831115904 | 83 | 73 | 0.0 | 0.0 | 0.00 | 0.00 | 0.00 | 100 | 1015.2 |
| 20260831115538 | 82 | 73 | 0.0 | 0.0 | 0.00 | 0.00 | 0.00 | 100 | 1015.2 |
| 20260831115404 | 82 | 73 | 0.0 | 0.0 | 0.00 | 0.00 | 0.00 | 100 | 1015.2 |
| 20260831114904 | 82 | 73 | 0.0 | 0.0 | 0.00 | 0.00 | 0.00 | 100 | 1015.1 |
| 20260831114406 | 82 | 73 | 0.0 | 0.0 | 0.00 | 0.00 | 0.00 | 100 | 1015.0 |
| 20260831114404 | 82 | 73 | 0.0 | 0.0 | 0.00 | 0.00 | 0.00 | 100 | 1014.9 |
| 20260831113904 | 82 | 73 | 0.0 | 0.0 | 0.00 | 0.00 | 0.00 | 100 | 1015.0 |
| 20260831113404 | 82 | 73 | 0.0 | 0.0 | 0.00 | 0.00 | 0.00 | 100 | 1014.9 |
| 20260831113117 | 82 | 73 | 0.0 | 0.0 | 0.00 | 0.00 | 0.00 | 100 | 1014.9 |
| 20260831112904 | 82 | 73 | 0.0 | 0.0 | 0.00 | 0.00 | 0.00 | 100 | 1014.9 |
| 20260831112750 | 82 | 73 | 0.0 | 0.0 | 0.00 | 0.00 | 0.00 | 100 | 1014.9 |
| 20260831112404 | 82 | 73 | 0.0 | 0.0 | 0.00 | 0.00 | 0.00 | 100 | 1014.9 |
| 20260831111905 | 82 | 73 | 0.0 | 0.0 | 0.00 | 0.00 | 0.00 | 100 | 1014.8 |
| 20260831111404 | 82 | 73 | 0.0 | 0.0 | 0.00 | 0.00 | 0.00 | 100 | 1014.7 |
| 20260831110904 | 82 | 73 | 0.0 | 0.0 | 0.00 | 0.00 | 0.00 | 100 | 1014.6 |
| 20260831110636 | 82 | 73 | 0.0 | 0.0 | 0.00 | 0.00 | 0.00 | 100 | 1014.6 |
| 20260831110404 | 82 | 73 | 0.0 | 0.0 | 0.00 | 0.00 | 0.00 | 100 | 1014.6 |
| 20260831110137 | 82 | 73 | 0.0 | 0.0 | 0.00 | 0.00 | 0.00 | 100 | 1014.6 |
| 20260831105904 | 82 | 73 | 0.0 | 0.0 | 0.00 | 0.00 | 0.00 | 100 | 1014.6 |
| 20260831105404 | 82 | 73 | 0.0 | 0.0 | 0.00 | 0.00 | 0.00 | 100 | 1014.6 |
| 20260831105147 | 82 | 73 | 0.0 | 0.0 | 0.00 | 0.00 | 0.00 | 100 | 1014.5 |
| 20260831104904 | 82 | 73 | 0.0 | 0.0 | 0.00 | 0.00 | 0.00 | 100 | 1014.5 |
| 20260831104720 | 82 | 73 | 0.0 | 0.0 | 0.00 | 0.00 | 0.00 | 100 | 1014.4 |
| 20260831104404 | 82 | 73 | 0.0 | 0.0 | 0.00 | 0.00 | 0.00 | 100 | 1014.4 |
| 20260831104316 | 82 | 73 | 0.0 | 0.0 | 0.00 | 0.00 | 0.00 | 100 | 1014.4 |
| 20260831103904 | 82 | 73 | 0.0 | 0.0 | 0.00 | 0.00 | 0.00 | 100 | 1014.4 |
| 20260831103404 | 82 | 73 | 0.0 | 0.0 | 0.00 | 0.00 | 0.00 | 100 | 1014.4 |
| 20260831102904 | 82 | 73 | 0.0 | 0.0 | 0.00 | 0.00 | 0.00 | 100 | 1014.3 |
| 20260831102404 | 82 | 73 | 0.0 | 0.0 | 0.00 | 0.00 | 0.00 | 100 | 1014.2 |
| 20260831101904 | 82 | 73 | 0.0 | 0.0 | 0.00 | 0.00 | 0.00 | 100 | 1014.2 |
| 20260831101404 | 82 | 73 | 0.0 | 0.0 | 0.00 | 0.00 | 0.00 | 100 | 1014.2 |
| 20260831100904 | 82 | 73 | 0.0 | 0.0 | 0.00 | 0.00 | 0.00 | 100 | 1014.3 |
| 20260831100707 | 82 | 73 | 0.0 | 0.0 | 0.00 | 0.00 | 0.00 | 100 | 1014.2 |
| 20260831100404 | 82 | 73 | 0.0 | 0.0 | 0.00 | 0.00 | 0.00 | 100 | 1014.2 |
| 20260831100246 | 81 | 175 | 0.0 | 0.0 | 0.00 | 0.00 | 0.00 | 100 | 1014.6 |
| 20260831095904 | 82 | 73 | 0.0 | 0.0 | 0.00 | 0.00 | 0.00 | 100 | 1014.3 |
| 20260831095404 | 82 | 73 | 0.0 | 0.0 | 0.00 | 0.00 | 0.00 | 100 | 1014.4 |
| 20260831094904 | 82 | 73 | 0.0 | 0.0 | 0.00 | 0.00 | 0.00 | 100 | 1014.3 |
| 20260831094404 | 82 | 73 | 0.0 | 0.0 | 0.00 | 0.00 | 0.00 | 100 | 1014.3 |
| 20260831094302 | 82 | 73 | 0.0 | 0.0 | 0.00 | 0.00 | 0.00 | 100 | 1014.4 |
| 20260831093904 | 82 | 73 | 0.0 | 0.0 | 0.00 | 0.00 | 0.00 | 100 | 1014.4 |
| 20260831093707 | 82 | 73 | 0.0 | 0.0 | 0.00 | 0.00 | 0.00 | 100 | 1014.3 |
| 20260831093404 | 82 | 73 | 0.0 | 0.0 | 0.00 | 0.00 | 0.00 | 100 | 1014.3 |
| 20260831092904 | 82 | 73 | 0.0 | 0.0 | 0.00 | 0.00 | 0.00 | 100 | 1014.2 |
| 20260831092628 | 82 | 73 | 0.0 | 0.0 | 0.00 | 0.00 | 0.00 | 100 | 1014.3 |
| 20260831092404 | 82 | 73 | 0.0 | 0.0 | 0.00 | 0.00 | 0.00 | 100 | 1014.3 |
| 20260831092127 | 82 | 73 | 0.0 | 0.0 | 0.00 | 0.00 | 0.00 | 100 | 1014.2 |
| 20260831091904 | 82 | 73 | 0.0 | 0.0 | 0.00 | 0.00 | 0.00 | 100 | 1014.2 |
| 20260831091404 | 82 | 73 | 0.0 | 0.0 | 0.00 | 0.00 | 0.00 | 100 | 1014.1 |
| 20260831091221 | 82 | 73 | 0.0 | 0.0 | 0.00 | 0.00 | 0.00 | 100 | 1014.1 |
| 20260831090904 | 82 | 73 | 0.0 | 0.0 | 0.00 | 0.00 | 0.00 | 100 | 1014.1 |
| 20260831090404 | 82 | 73 | 0.0 | 0.0 | 0.00 | 0.00 | 0.00 | 100 | 1014.0 |
| 20260831085904 | 82 | 73 | 0.0 | 0.0 | 0.00 | 0.00 | 0.00 | 100 | 1014.0 |
| 20260831085633 | 82 | 73 | 0.0 | 0.0 | 0.00 | 0.00 | 0.00 | 100 | 1014.0 |
| 20260831085404 | 82 | 73 | 0.0 | 0.0 | 0.00 | 0.00 | 0.00 | 100 | 1014.0 |
| 20260831084904 | 82 | 73 | 0.0 | 0.0 | 0.00 | 0.00 | 0.00 | 100 | 1014.0 |
| 20260831084404 | 82 | 73 | 0.0 | 0.0 | 0.00 | 0.00 | 0.00 | 100 | 1014.0 |
| 20260831084147 | 82 | 73 | 0.0 | 0.0 | 0.00 | 0.00 | 0.00 | 100 | 1014.1 |
| 20260831083904 | 82 | 73 | 0.0 | 0.0 | 0.00 | 0.00 | 0.00 | 100 | 1014.1 |
| 20260831083404 | 82 | 73 | 0.0 | 0.0 | 0.00 | 0.00 | 0.00 | 100 | 1014.0 |
| 20260831082904 | 82 | 73 | 0.0 | 0.0 | 0.00 | 0.00 | 0.00 | 100 | 1014.1 |
| 20260831082404 | 82 | 73 | 0.0 | 0.0 | 0.00 | 0.00 | 0.00 | 100 | 1014.0 |
| 20260831082124 | 82 | 73 | 0.0 | 0.0 | 0.00 | 0.00 | 0.00 | 100 | 1014.1 |
| 20260831081904 | 82 | 73 | 0.0 | 0.0 | 0.00 | 0.00 | 0.00 | 100 | 1014.1 |
| 20260831081700 | 82 | 73 | 0.0 | 0.0 | 0.00 | 0.00 | 0.00 | 100 | 1014.1 |
| 20260831081556 | 82 | 73 | 0.0 | 0.0 | 0.00 | 0.00 | 0.00 | 100 | 1014.1 |
| 20260831081404 | 82 | 73 | 0.0 | 0.0 | 0.00 | 0.00 | 0.00 | 100 | 1014.1 |
| 20260831081336 | 82 | 73 | 0.0 | 0.0 | 0.00 | 0.00 | 0.00 | 100 | 1014.1 |
| 20260831081126 | 82 | 73 | 0.0 | 0.0 | 0.00 | 0.00 | 0.00 | 100 | 1014.1 |
| 20260831080904 | 82 | 73 | 0.0 | 0.0 | 0.00 | 0.00 | 0.00 | 100 | 1014.1 |
| 20260831080545 | 82 | 73 | 0.0 | 0.0 | 0.00 | 0.00 | 0.00 | 100 | 1014.0 |
| 20260831080404 | 82 | 73 | 0.0 | 0.0 | 0.00 | 0.00 | 0.00 | 100 | 1014.0 |
| 20260831075904 | 82 | 73 | 0.0 | 0.0 | 0.00 | 0.00 | 0.00 | 100 | 1014.0 |
| 20260831075541 | 82 | 73 | 0.0 | 0.0 | 0.00 | 0.00 | 0.00 | 100 | 1014.0 |
| 20260831075404 | 82 | 73 | 0.0 | 0.0 | 0.00 | 0.00 | 0.00 | 100 | 1014.0 |
| 20260831075133 | 82 | 73 | 0.0 | 0.0 | 0.00 | 0.00 | 0.00 | 100 | 1014.0 |
| 20260831074905 | 82 | 73 | 0.0 | 0.0 | 0.00 | 0.00 | 0.00 | 100 | 1014.0 |
| 20260831074404 | 82 | 73 | 0.0 | 0.0 | 0.00 | 0.00 | 0.00 | 100 | 1014.1 |
| 20260831073905 | 82 | 73 | 0.0 | 0.0 | 0.00 | 0.00 | 0.00 | 100 | 1014.1 |
| 20260831073628 | 82 | 73 | 0.0 | 0.0 | 0.00 | 0.00 | 0.00 | 100 | 1014.0 |
| 20260831073405 | 82 | 73 | 0.0 | 0.0 | 0.00 | 0.00 | 0.00 | 100 | 1014.0 |
| 20260831072905 | 82 | 73 | 0.0 | 0.0 | 0.00 | 0.00 | 0.00 | 100 | 1014.1 |
| 20260831072404 | 82 | 73 | 0.0 | 0.0 | 0.00 | 0.00 | 0.00 | 100 | 1014.1 |
| 20260831071905 | 82 | 73 | 0.0 | 0.0 | 0.00 | 0.00 | 0.00 | 100 | 1014.2 |
| 20260831071405 | 82 | 73 | 0.0 | 0.0 | 0.00 | 0.00 | 0.00 | 100 | 1014.2 |
| 20260831070905 | 82 | 73 | 0.0 | 0.0 | 0.00 | 0.00 | 0.00 | 100 | 1014.2 |
| 20260831070405 | 82 | 73 | 0.0 | 0.0 | 0.00 | 0.00 | 0.00 | 100 | 1014.2 |
| 20260831065905 | 82 | 73 | 0.0 | 0.0 | 0.00 | 0.00 | 0.00 | 100 | 1014.2 |
| 20260831065405 | 82 | 73 | 0.0 | 0.0 | 0.00 | 0.00 | 0.00 | 100 | 1014.2 |
| 20260831064905 | 82 | 73 | 0.0 | 0.0 | 0.00 | 0.00 | 0.00 | 100 | 1014.2 |
| 20260831064405 | 82 | 73 | 0.0 | 0.0 | 0.00 | 0.00 | 0.00 | 100 | 1014.4 |
| 20260831063905 | 82 | 73 | 0.0 | 0.0 | 0.00 | 0.00 | 0.00 | 100 | 1014.5 |
| 20260831063405 | 82 | 73 | 0.0 | 0.0 | 0.00 | 0.00 | 0.00 | 100 | 1014.3 |
| 20260831062905 | 82 | 73 | 0.0 | 0.0 | 0.00 | 0.00 | 0.00 | 100 | 1014.3 |
| 20260831062405 | 82 | 73 | 0.0 | 0.0 | 0.00 | 0.00 | 0.00 | 100 | 1014.5 |
| 20260831061905 | 82 | 73 | 0.0 | 0.0 | 0.00 | 0.00 | 0.00 | 100 | 1014.5 |
| 20260831061405 | 82 | 73 | 0.0 | 0.0 | 0.00 | 0.00 | 0.00 | 100 | 1014.6 |
| 20260831060905 | 82 | 73 | 0.0 | 0.0 | 0.00 | 0.00 | 0.00 | 100 | 1014.6 |
| 20260831060405 | 82 | 73 | 0.0 | 0.0 | 0.00 | 0.00 | 0.00 | 100 | 1014.6 |
| 20260831055905 | 82 | 73 | 0.0 | 0.0 | 0.00 | 0.00 | 0.00 | 100 | 1014.7 |
| 20260831055405 | 82 | 73 | 0.0 | 0.0 | 0.00 | 0.00 | 0.00 | 100 | 1014.7 |
| 20260831054905 | 82 | 73 | 0.0 | 0.0 | 0.00 | 0.00 | 0.00 | 100 | 1014.8 |
| 20260831054405 | 82 | 73 | 0.0 | 0.0 | 0.00 | 0.00 | 0.00 | 100 | 1014.7 |
| 20260831053905 | 82 | 73 | 0.0 | 0.0 | 0.00 | 0.00 | 0.00 | 100 | 1014.8 |
| 20260831053405 | 82 | 73 | 0.0 | 0.0 | 0.00 | 0.00 | 0.00 | 100 | 1014.8 |
| 20260831052905 | 82 | 73 | 0.0 | 0.0 | 0.00 | 0.00 | 0.00 | 100 | 1014.8 |
| 20260831052405 | 82 | 73 | 0.0 | 0.0 | 0.00 | 0.00 | 0.00 | 100 | 1014.8 |
| 20260831051905 | 82 | 73 | 0.0 | 0.0 | 0.00 | 0.00 | 0.00 | 100 | 1014.8 |
| 20260831051405 | 82 | 73 | 0.0 | 0.0 | 0.00 | 0.00 | 0.00 | 100 | 1014.9 |
| 20260831050905 | 82 | 73 | 0.0 | 0.0 | 0.00 | 0.00 | 0.00 | 100 | 1015.0 |
| 20260831050405 | 82 | 73 | 0.0 | 0.0 | 0.00 | 0.00 | 0.00 | 100 | 1015.0 |
| 20260831045905 | 82 | 73 | 0.0 | 0.0 | 0.00 | 0.00 | 0.00 | 100 | 1015.0 |
| 20260831045405 | 82 | 73 | 0.0 | 0.0 | 0.00 | 0.00 | 0.00 | 100 | 1015.1 |
| 20260831044905 | 82 | 73 | 0.0 | 0.0 | 0.00 | 0.00 | 0.00 | 100 | 1015.1 |
| 20260831044405 | 82 | 73 | 0.0 | 0.0 | 0.00 | 0.00 | 0.00 | 100 | 1015.2 |
| 20260831043905 | 82 | 73 | 0.0 | 0.0 | 0.00 | 0.00 | 0.00 | 100 | 1015.3 |
| 20260831043405 | 82 | 73 | 0.0 | 0.0 | 0.00 | 0.00 | 0.00 | 100 | 1015.2 |
| 20260831042905 | 82 | 73 | 0.0 | 0.0 | 0.00 | 0.00 | 0.00 | 100 | 1015.2 |
| 20260831042405 | 82 | 73 | 0.0 | 0.0 | 0.00 | 0.00 | 0.00 | 100 | 1015.2 |
| 20260831041905 | 82 | 73 | 0.0 | 0.0 | 0.00 | 0.00 | 0.00 | 100 | 1015.1 |
| 20260831041405 | 82 | 73 | 0.0 | 0.0 | 0.00 | 0.00 | 0.00 | 100 | 1015.0 |
| 20260831040905 | 82 | 73 | 0.0 | 0.0 | 0.00 | 0.00 | 0.00 | 100 | 1015.0 |
| 20260831040405 | 82 | 73 | 0.0 | 0.0 | 0.00 | 0.00 | 0.00 | 100 | 1015.0 |
| 20260831035905 | 82 | 73 | 0.0 | 0.0 | 0.00 | 0.00 | 0.00 | 100 | 1015.0 |
| 20260831035405 | 82 | 73 | 0.0 | 0.0 | 0.00 | 0.00 | 0.00 | 100 | 1015.0 |
| 20260831034905 | 82 | 73 | 0.0 | 0.0 | 0.00 | 0.00 | 0.00 | 100 | 1015.1 |
| 20260831034436 | 82 | 73 | 0.0 | 0.0 | 0.00 | 0.00 | 0.00 | 100 | 1015.0 |
| 20260831034405 | 82 | 73 | 0.0 | 0.0 | 0.00 | 0.00 | 0.00 | 100 | 1015.0 |
| 20260831033905 | 82 | 73 | 0.0 | 0.0 | 0.00 | 0.00 | 0.00 | 100 | 1015.0 |
| 20260831033405 | 82 | 73 | 0.0 | 0.0 | 0.00 | 0.00 | 0.00 | 100 | 1015.0 |
| 20260831033004 | 82 | 73 | 0.0 | 0.0 | 0.00 | 0.00 | 0.00 | 100 | 1015.0 |
| 20260831032905 | 82 | 73 | 0.0 | 0.0 | 0.00 | 0.00 | 0.00 | 100 | 1015.0 |
| 20260831032405 | 82 | 73 | 0.0 | 0.0 | 0.00 | 0.00 | 0.00 | 100 | 1015.1 |
| 20260831031905 | 82 | 73 | 0.0 | 0.0 | 0.00 | 0.00 | 0.00 | 100 | 1015.0 |
| 20260831031405 | 82 | 73 | 0.0 | 0.0 | 0.00 | 0.00 | 0.00 | 100 | 1015.1 |
| 20260831030905 | 82 | 73 | 0.0 | 0.0 | 0.00 | 0.00 | 0.00 | 100 | 1015.1 |
| 20260831030405 | 82 | 73 | 0.0 | 0.0 | 0.00 | 0.00 | 0.00 | 100 | 1015.2 |
| 20260831025905 | 82 | 73 | 0.0 | 0.0 | 0.00 | 0.00 | 0.00 | 100 | 1015.2 |
| 20260831025405 | 82 | 73 | 0.0 | 0.0 | 0.00 | 0.00 | 0.00 | 100 | 1015.3 |
| 20260831024905 | 82 | 73 | 0.0 | 0.0 | 0.00 | 0.00 | 0.00 | 100 | 1015.3 |
| 20260831024405 | 82 | 73 | 0.0 | 0.0 | 0.00 | 0.00 | 0.00 | 100 | 1015.2 |
| 20260831023905 | 82 | 73 | 0.0 | 0.0 | 0.00 | 0.00 | 0.00 | 100 | 1015.2 |
| 20260831023405 | 82 | 73 | 0.0 | 0.0 | 0.00 | 0.00 | 0.00 | 100 | 1015.2 |
| 20260831022905 | 82 | 73 | 0.0 | 0.0 | 0.00 | 0.00 | 0.00 | 100 | 1015.3 |
| 20260831022405 | 82 | 73 | 0.0 | 0.0 | 0.00 | 0.00 | 0.00 | 100 | 1015.3 |
| 20260831021905 | 82 | 73 | 0.0 | 0.0 | 0.00 | 0.00 | 0.00 | 100 | 1015.3 |
| 20260831021405 | 82 | 73 | 0.0 | 0.0 | 0.00 | 0.00 | 0.00 | 100 | 1015.4 |
| 20260831021229 | 82 | 73 | 0.0 | 0.0 | 0.00 | 0.00 | 0.00 | 100 | 1015.3 |
| 20260831020905 | 82 | 73 | 0.0 | 0.0 | 0.00 | 0.00 | 0.00 | 100 | 1015.3 |
| 20260831020405 | 82 | 73 | 0.0 | 0.0 | 0.00 | 0.00 | 0.00 | 100 | 1015.4 |
| 20260831015905 | 82 | 73 | 0.0 | 1.0 | 0.00 | 0.00 | 0.00 | 100 | 1015.4 |
| 20260831015405 | 82 | 122 | 0.0 | 0.0 | 0.00 | 0.00 | 0.00 | 100 | 1015.4 |
| 20260831015134 | 83 | 122 | 0.0 | 1.0 | 0.00 | 0.00 | 0.00 | 100 | 1015.4 |
| 20260831014905 | 83 | 122 | 0.0 | 1.0 | 0.00 | 0.00 | 0.00 | 100 | 1015.4 |
| 20260831014405 | 83 | 129 | 0.0 | 0.0 | 0.00 | 0.00 | 0.00 | 100 | 1015.4 |
| 20260831013905 | 83 | 132 | 0.0 | 2.0 | 0.00 | 0.00 | 0.00 | 100 | 1015.3 |
| 20260831013405 | 83 | 168 | 0.0 | 0.0 | 0.00 | 0.00 | 0.00 | 100 | 1015.2 |
| 20260831012905 | 83 | 168 | 0.0 | 0.0 | 0.00 | 0.00 | 0.00 | 100 | 1015.2 |
| 20260831012405 | 83 | 168 | 0.0 | 2.0 | 0.00 | 0.00 | 0.00 | 100 | 1015.2 |
| 20260831011905 | 83 | 94 | 0.0 | 3.0 | 0.00 | 0.00 | 0.00 | 100 | 1015.2 |
| 20260831011405 | 83 | 133 | 0.0 | 0.0 | 0.00 | 0.00 | 0.00 | 100 | 1014.6 |
| 20260831010905 | 83 | 133 | 0.0 | 2.0 | 0.00 | 0.00 | 0.00 | 100 | 1014.9 |
| 20260831010405 | 83 | 201 | 0.0 | 1.0 | 0.00 | 0.00 | 0.00 | 100 | 1013.6 |
| 20260831005905 | 83 | 126 | 0.0 | 5.0 | 0.00 | 0.00 | 0.00 | 100 | 1013.6 |
| 20260831005405 | 83 | 32 | 0.0 | 1.0 | 0.00 | 0.00 | 0.00 | 100 | 1013.9 |
| 20260831004905 | 83 | 18 | 0.0 | 6.0 | 0.00 | 0.00 | 0.00 | 100 | 1013.9 |
| 20260831004405 | 83 | 35 | 0.0 | 3.0 | 0.00 | 0.00 | 0.00 | 100 | 1014.2 |
| 20260831004140 | 83 | 77 | 0.0 | 6.0 | 0.00 | 0.00 | 0.00 | 100 | 1013.7 |
| 20260831003905 | 83 | 77 | 0.0 | 6.0 | 0.00 | 0.00 | 0.00 | 100 | 1013.7 |
| 20260831003405 | 84 | 59 | 0.0 | 0.0 | 0.00 | 0.00 | 0.00 | 100 | 1013.9 |
| 20260831003209 | 84 | 59 | 0.0 | 2.0 | 0.00 | 0.00 | 0.00 | 100 | 1014.5 |
| 20260831002905 | 84 | 59 | 0.0 | 2.0 | 0.00 | 0.00 | 0.00 | 100 | 1014.5 |
| 20260831002405 | 84 | 91 | 0.0 | 4.0 | 0.00 | 0.00 | 0.00 | 100 | 1014.7 |
| 20260831001905 | 84 | 71 | 2.0 | 4.0 | 0.00 | 0.00 | 0.00 | 100 | 1014.8 |
| 20260831001405 | 84 | 49 | 0.0 | 2.0 | 0.00 | 0.00 | 0.00 | 100 | 1014.9 |
| 20260831000905 | 84 | 111 | 0.0 | 3.0 | 0.00 | 0.00 | 0.00 | 100 | 1014.8 |
| 20260831000405 | 84 | 129 | 0.0 | 4.0 | 0.00 | 0.00 | 0.00 | 100 | 1014.9 |
| 20260830235905 | 84 | 61 | 0.0 | 3.0 | 0.00 | 0.00 | 0.00 | 100 | 1014.8 |
| 20260830235405 | 84 | 150 | 0.0 | 3.0 | 0.00 | 0.00 | 0.00 | 100 | 1014.7 |
| 20260830234905 | 84 | 217 | 0.0 | 2.0 | 0.00 | 0.00 | 0.00 | 100 | 1014.7 |
| 20260830234405 | 84 | 101 | 0.0 | 4.0 | 0.00 | 0.00 | 0.00 | 100 | 1014.7 |
| 20260830233905 | 84 | 75 | 0.0 | 0.0 | 0.00 | 0.00 | 0.00 | 100 | 1014.7 |
| 20260830233405 | 84 | 75 | 0.0 | 5.0 | 0.00 | 0.00 | 0.00 | 100 | 1014.7 |
| 20260830232905 | 84 | 81 | 2.0 | 2.0 | 0.00 | 0.00 | 0.00 | 100 | 1014.6 |
| 20260830232405 | 84 | 99 | 0.0 | 3.0 | 0.00 | 0.00 | 0.00 | 100 | 1014.7 |